Location: A�t �Alizem
(31.2076°N, 8.7872°W)
Time: 05:32:42
(UTC+00:00)

CZ-2C R/B - Pass Details

Date: 27 November 2020
Orbit: 785 x 870 km, 98.2° (Epoch: 25 January)

Event Time Altitude Azimuth Distance (km) Brightness Sun altitude
Exits shadow 19:36:16 17° 162° (SSE) 1,882 4.4 -26.0°
Drops below altitude 10° 19:37:32 10° 169° (SSE) 2,336 5.0 -26.3°
Sets 19:39:58 0° 176° (S) 3,265 5.8 -26.8°
